Location: Newark
(40.9833°N, 0.0333°W)
Time: 03:26:26
(UTC+00:00)

Transit 2A Rocket - Pass Details

Date: 02 November 2020
Orbit: 588 x 914 km, 66.7° (Epoch: 26 November)

Event Time Altitude Azimuth Distance (km) Brightness Sun altitude
Rises 08:53:50 0° 225° (SW) 3,535 8.4 21.6°
Reaches altitude 10° 08:56:27 10° 231° (SW) 2,597 7.8 22.0°
Maximum altitude 09:02:20 49° 305° (NW) 1,149 5.8 22.8°
Drops below altitude 10° 09:08:01 10° 20° (NNE) 2,514 7.5 23.5°
Sets 09:10:32 0° 26° (NNE) 3,413 8.1 23.8°
